Location: Dal�� Lhota
(48.7500°N, 14.0167°E)
Time: 02:12:46
(UTC+00:00)

Vanguard 3 - Pass Details

Date: 01 August 2021
Orbit: 510 x 3260 km, 33.3° (Epoch: 16 September)

Event Time Altitude Azimuth Distance (km) Brightness Sun altitude
Rises 22:29:13 0° 275° (W) 7,043 12.1 -22.9°
Reaches altitude 10° 22:34:51 10° 265° (W) 6,162 11.7 -23.0°
Maximum altitude 22:49:39 28° 217° (SW) 4,677 10.6 -23.3°
Enters shadow 22:53:46 26° 199° (SSW) 4,653 10.4 -23.4°
Drops below altitude 10° 23:02:34 10° 167° (SSE) 5,314 - -23.5°
Sets 23:07:02 0° 156° (SSE) 5,956 - -23.5°
